This is the latest recevied weather packets stored in our database for station/object K1AWR. If no packets are shown the sender has not sent any weather packets the latest 10 day(s).
| Time | Temp. | Humidity | Pressure | Rain* | Wind** | Luminosity | Snow |
|---|---|---|---|---|---|---|---|
| 1778081061 | 19.44° C | 67% | 1009.3 hPa | 0 mm | - | 117 W/m² | - |
| 1778080760 | 19.44° C | 67% | 1009.4 hPa | 0 mm | - | 113 W/m² | - |
| 1778080457 | 19.44° C | 68% | 1009.4 hPa | 0 mm | - | 114 W/m² | - |
| 1778080154 | 19.44° C | 67% | 1009.3 hPa | 0 mm | - | 109 W/m² | - |
| 1778079850 | 19.44° C | 67% | 1009.6 hPa | 0 mm | - | 113 W/m² | - |
| 1778079547 | 18.89° C | 68% | 1009.5 hPa | 0 mm | - | 110 W/m² | - |
| 1778079243 | 18.89° C | 69% | 1009.5 hPa | 0 mm | - | 92 W/m² | - |
| 1778078941 | 18.89° C | 69% | 1009.6 hPa | 0 mm | - | 101 W/m² | - |
| 1778078637 | 18.89° C | 69% | 1009.5 hPa | 0 mm | - | 102 W/m² | - |
| 1778078336 | 18.89° C | 68% | 1009.7 hPa | 0 mm | - | 83 W/m² | - |
| 1778078032 | 18.89° C | 69% | 1009.8 hPa | 0 mm | - | 106 W/m² | - |
| 1778077731 | 18.89° C | 69% | 1009.7 hPa | 0 mm | - | 112 W/m² | - |
| 1778077428 | 19.44° C | 69% | 1010 hPa | 0 mm | - | 120 W/m² | - |
| 1778077127 | 18.89° C | 69% | 1009.9 hPa | 0 mm | - | 165 W/m² | - |
| 1778076824 | 18.33° C | 71% | 1009.9 hPa | 0 mm | - | 174 W/m² | - |
| 1778076522 | 18.33° C | 71% | 1009.9 hPa | 0 mm | - | 154 W/m² | - |
| 1778076219 | 18.33° C | 72% | 1009.8 hPa | 0 mm | - | 127 W/m² | - |
| 1778075916 | 18.33° C | 72% | 1010 hPa | 0 mm | - | 107 W/m² | - |
| 1778075613 | 17.78° C | 72% | 1009.7 hPa | 0 mm | - | 120 W/m² | - |
| 1778075309 | 17.78° C | 72% | 1009.7 hPa | 0 mm | - | 120 W/m² | - |
| 1778075005 | 17.78° C | 73% | 1009.8 hPa | 0 mm | - | 116 W/m² | - |
| 1778074703 | 17.78° C | 73% | 1009.7 hPa | 0 mm | - | 123 W/m² | - |
| 1778074399 | 17.78° C | 74% | 1009.6 hPa | 0 mm | - | 136 W/m² | - |
| 1778074096 | 17.78° C | 74% | 1009.6 hPa | 0 mm | - | 134 W/m² | - |
| 1778073793 | 17.78° C | 74% | 1009.8 hPa | 0 mm | - | 149 W/m² | - |
* Rain latest hour (hover to see other rain measurements)
** Current wind speed in m/s (hover to see current wind gust speed)